Simultaneous Nadir Overpasses (SNOs) Predictions

Prediction of SNOs between GOES-15 and METOP-C Satellite Orbit:

Table of predicted SNOs for the next 14.0 days since TLE Epoch: 4/3/2020
Index Date Time (GOES-15) GOES-15 Lat,Lon METOP-C Lat,Lon Distance(km) Time Diff (sec)
1 04/04/2020 06:06:59 -0.27,-127.73 -0.45,-128.47 85.28 80
2 04/05/2020 05:43:41 -0.26,-127.69 0.69,-123.48 479.30 80
3 04/06/2020 18:05:13 0.27,-127.69 0.33,-128.05 40.43 80
4 04/09/2020 06:03:34 -0.28,-127.53 -0.29,-127.64 12.55 80
5 04/11/2020 17:59:07 0.27,-127.47 0.22,-127.20 30.87 80
6 04/14/2020 05:57:28 -0.27,-127.30 -0.13,-126.80 56.98 80
7 04/15/2020 18:16:20 0.27,-127.28 1.19,-131.36 464.67 80
8 04/16/2020 17:58:20 0.27,-127.23 0.10,-126.36 99.09 80




NCC Satellite Simultaneous Nadir Overpasses (SNOs) Prediction Service
